SCP
0 -0 0 -0 0 0 0 0 0 0 -0 -0 -0 -0 -0 -0 -0 -0 -0 -0 -0 -0 -0 -0 -0 -0 -0 -0 -0 0 -0 -0 -0 0 -0 0 0 0 0 0 0 0 0
-0 -0 -0 0 0 0 0 0 0 -0 -0 -0 -0 -0 -0 -0 -0 -0 -0 -0 -0 -0 -0 0 0 0 0 -0 -0 0 0 0 0 0 0 0 0 0 0 0 0 0 0
0 -0 0 0 0 0 0 0 0 -0 -0 -0 -0 -0 -0 -0 -0 -0 -0 -0 -0 0 0 0 0 0 0 0 0 0 0 0 0 0 0 0 0 0 0 0 0 0 0
-0 -0 0 0 0 0 0 0 -0 -0 -0 -0 -0 -0 -0 -0 -0 -0 0 0 0 0 0 0 0 0 0 0 0 0 0 0 0 0 0 0 0 0 0 0 0 0 0
-0 -0 -0 0 0 0 -0 -0 -0 -0 -0 -0 -0 -0 -0 0 0 0 0 0 0 0 0 0 0 0 0 0 0 0 0 0 0 0 0 0 0 0 0 0 0 0 0
-0 -0 -0 0 0 -0 -0 -0 -0 -0 -0 0 0 0 0 0 0 -0 0 0 0 0 0 0 0 0 0 -0 0 0 0 0 -0 0 0 0 0 0 0 0 0 0 0
0 -0 -0 0 0 -0 -0 -0 -0 -0 -0 0 -0 -0 -0 -0 -0 -0 -0 0 0 0 0 0 -0 -0 -0 -0 -0 0 0 -0 0 0 0 0 0 0 0 0 0 0 0
-0 -0 -0 0 -0 -0 -0 -0 -0 -0 0 0 -0 -0 -0 -0 -0 -0 -0 -0 -0 0 0 0 0 -0 -0 -0 -0 -0 0 0 -0 0 0 0 0 0 0 0 0 0 0
0 0 0 -0 -0 -0 -0 -0 -0 -0 -0 -0 -0 -0 -0 -0 -0 -0 -0 -0 -0 -0 -0 -0 -0 -0 -0 -0 -0 -0 -0 0 0 0 0 0 0 0 0 0 0 0 0
0 0 -0 0 0 0 -0 -0 -0 -0 -0 -0 -0 -0 0 -0 -0 -0 -0 -0 -0 -0 -0 -0 -0 -0 -0 -0 -0 -0 -0 -0 0 0 0 0 0 0 0 0 0 0 0
-0 -0 -0 -0 0 0 0 -0 -0 -0 -0 -0 -0 -0 -0 -0 0 0 -0 -0 -0 -0 -0 -0 -0 -0 -0 -0 -0 -0 -0 0 0 0 0 0 0 0 0 0 0 0 0
0 0 0 0 0 -0 -0 -0 -0 -0 -0 -0 -0 -0 0 0 0 0 -0 -0 -0 -0 0 0 0 0 0 0 0 0 0 0 0 0 0 0 0 0 0 0 0 0 0
0 0 0 0 0 -0 -0 -0 -0 -0 -0 -0 0 0 0 0 0 0 0 0 0 0 0 0 0 0 0 0 0 0 0 0 0 0 0 0 0 0 0 0 0 0 0
0 0 0 -0 -0 -0 -0 -0 -0 -0 -0 0 0 0 0 0 0 0 0 0 0 0 0 0 0 0 0 0 0 0 0 0 0 0 0 0 0 0 0 0 0 0 0
0 0 0 -0 -0 -0 0 -0 -0 0 0 0 0 0 0 0 0 0 0 0 0 0 0 0 0 0 0 0 0 0 0 0 0 0 0 0 0 0 0 0 0 0 0
0 -0 0 0 0 0 0 0 0 0 0 0 0 0 0 0 0 0 0 0 0 0 0 0 0 0 0 0 0 0 0 0 0 0 0 0 0 0 0 0 0 0 0
-0 0 0 0 0 0 0 0 0 0 0 0 0 0 0 0 0 0 0 0 0 0 0 0 0 0 0 0 0 0 0 0 0 0 0 0 0 0 0 0 0 0 0
0 0 0 0 0 0 0 0 -0 0 0 0 0 0 0 0 0 0 0 0 0 0 0 0 0 0 0 0 0 0 0 0 0 0 0 0 0 0 0 0 0 0 0
0 0 0 0 0 0 0 0 0 0 0 0 0 0 0 0 0 0 0 0 0 0 0 0 0 0 0 0 0 0 0 0 0 0 0 0 0 0 0 0 0 0 0
0 0 0 0 0 0 0 0 0 0 0 0 0 0 0 0 0 0 0 0 0 0 0 0 0 0 0 0 0 0 0 0 0 0 0 0 0 0 0 0 0 0 0
0 0 0 0 0 0 0 0 0 0 0 0 0 0 0 0 0 0 0 0 0 0 0 0 0 0 0 0 0 0 0 0 0 0 0 0 0 0 0 0 0 0 0
0 0 0 0 0 0 0 0 0 0 0 0 0 0 0 0 0 0 0 0 0 0 0 0 0 0 0 0 0 0 0 0 0 0 0 0 0 0 0 0 0 0 0
-0 0 0 0 0 0 0 0 0 0 0 0 0 0 0 0 0 0 0 0 0 0 0 0 0 0 0 0 0 0 0 0 0 0 0 0 0 0 0 0 0 0 0
0 0 0 0 0 0 0 0 0 0 0 0 0 0 0 0 0 0 0 0 0 0 0 0 0 0 0 0 0 0 0 0 0 0 0 0 0 0 0 0 0 0 0
0 0 0 0 0 0 0 0 0 0 0 0 0 0 0 0 0 0 0 0 0 0 0 0 0 0 0 0 0 0 0 0 0 0 0 0 0 0 0 0 0 0 0
0 0 0 0 0 0 0 0 0 0 0 0 0 0 0 0 0 0 0 0 0 0 0 0 0 0 0 0 0 0 0 0 0 0 0 0 0 0 0 0 0 0 0
Wind_Speed_500mb
51 51 46 41 39 36 33 33 31 28 27 26 26 23 19 17 16 15 14 16 18 21 22 18 15 11 8 5 2 4 10 13 15 15 9 10 12 14 17 16 18 22 23
50 51 46 42 40 37 34 32 29 26 26 27 24 20 20 20 18 18 21 24 25 26 27 26 25 23 20 16 12 9 8 9 12 14 13 9 9 13 13 13 17 19 22
48 49 44 40 40 37 32 30 29 26 27 26 23 22 22 21 21 23 26 25 25 24 24 23 23 21 21 19 18 18 16 15 12 10 12 13 12 11 10 14 17 21 20
45 49 47 41 37 33 31 28 26 25 25 23 22 22 23 21 23 25 25 22 21 20 21 20 20 20 20 20 20 20 20 19 20 18 14 12 11 14 15 14 12 22 17
48 48 45 40 35 32 29 26 24 25 24 22 22 23 22 23 25 26 23 19 18 18 17 17 18 18 19 21 22 22 24 25 23 21 18 17 11 9 14 16 19 18 12
45 44 40 37 34 30 27 25 26 25 23 21 22 23 24 25 26 24 20 18 22 25 27 28 29 27 25 26 28 27 25 26 26 24 21 18 17 16 17 20 19 17 15
43 40 39 34 31 28 26 25 25 24 22 21 23 23 24 26 25 23 22 24 27 32 34 35 35 34 32 31 33 33 31 29 29 26 23 20 20 21 22 22 19 16 13
43 40 36 32 29 27 26 26 25 23 20 23 25 25 27 26 26 25 24 26 28 31 34 35 35 34 33 32 32 32 33 34 34 30 26 23 24 23 22 24 23 20 19
39 40 37 33 30 28 26 24 23 21 22 25 27 29 28 26 27 24 23 24 26 25 26 27 29 31 32 30 31 33 34 34 32 32 31 27 23 25 23 18 21 24 24
39 35 32 32 31 27 26 23 22 21 24 27 28 27 28 25 24 22 21 20 21 20 20 21 24 27 30 33 36 36 33 33 33 28 24 23 23 23 23 21 18 20 22
37 32 31 28 28 28 26 24 22 23 25 26 24 25 24 20 19 18 17 16 15 16 18 22 24 24 29 32 35 37 38 38 38 33 25 19 16 17 17 21 24 22 22
39 33 28 27 27 27 24 22 22 24 24 23 20 20 18 16 13 13 11 10 9 13 18 22 23 27 32 40 41 39 37 44 44 32 26 27 23 20 20 19 20 22 20
36 33 28 27 26 23 21 21 22 21 20 17 16 17 14 11 11 8 4 5 8 11 15 19 21 27 37 42 42 41 48 48 43 34 29 31 32 33 31 30 28 29 27
31 28 26 24 23 23 22 18 15 14 13 9 10 12 11 9 8 4 2 6 8 11 15 19 20 26 41 46 42 43 45 47 41 35 31 30 31 34 36 35 36 37 39
30 28 26 25 24 23 18 15 12 9 9 11 7 7 9 10 8 7 10 12 13 17 20 24 26 39 47 42 40 42 44 35 36 38 37 39 37 35 36 38 37 38 40
29 27 28 24 22 20 16 13 8 7 13 13 12 16 21 16 13 14 16 17 20 23 28 31 41 49 47 44 40 40 33 33 35 38 41 42 42 42 41 42 43 41 40
28 30 28 26 23 26 22 9 2 15 21 24 31 28 25 28 17 16 20 23 24 28 39 46 46 49 46 41 39 40 36 39 42 42 42 44 48 50 51 51 51 50 49
33 34 30 22 28 28 22 6 26 23 32 32 34 24 22 14 12 17 21 24 32 48 45 48 51 45 38 36 37 37 40 46 51 53 51 49 51 53 56 57 56 56 57
35 36 36 29 30 31 37 27 32 30 25 16 10 14 15 13 16 22 27 40 49 48 49 54 45 39 38 38 41 42 44 48 53 57 56 54 53 54 52 56 57 58 57
32 34 36 32 36 26 33 19 9 3 4 9 15 16 14 24 31 29 35 39 40 46 45 43 41 41 44 51 53 56 58 57 53 45 44 50 55 50 56 59 60 63 65
16 18 21 24 10 3 9 6 9 5 8 6 9 18 24 26 30 32 34 35 38 41 42 45 47 52 56 55 53 41 43 37 30 43 52 41 49 59 56 60 57 61 67
13 11 15 19 21 22 18 12 10 6 3 9 16 24 27 31 33 35 36 37 41 49 54 53 51 40 38 43 41 32 27 29 25 27 34 48 45 59 51 55 70 69 65
43 39 36 31 28 22 18 11 2 4 9 17 25 30 32 34 34 37 41 45 50 53 49 40 28 30 29 41 45 23 22 22 41 24 35 39 34 39 53 55 60 62 64
46 43 38 36 31 20 11 4 6 10 16 23 27 28 28 28 35 40 45 52 54 50 37 30 32 35 36 32 35 25 31 30 34 42 34 36 42 44 45 45 46 53 56
37 36 33 24 17 10 5 8 12 15 15 16 16 20 27 32 42 47 53 55 54 48 42 38 34 39 38 31 42 36 26 24 24 28 50 43 43 39 37 40 36 38 47
33 30 24 20 16 10 7 8 11 14 16 19 23 28 34 41 51 55 54 53 52 50 46 37 32 46 46 33 30 26 21 24 27 31 37 41 49 48 44 42 38 39 44
Wind_Direction_500mb
162 159 161 158 154 151 151 147 143 137 131 129 124 117 110 105 100 97 93 87 85 81 76 73 73 73 72 66 25 308 303 310 308 311 315 311 319 332 346 351 358 0 360
155 162 162 159 159 158 155 151 146 142 136 128 121 119 117 111 107 97 91 86 82 79 75 70 68 67 64 60 52 40 13 338 326 314 309 301 302 324 334 347 340 341 343
160 162 160 165 162 159 155 155 148 143 134 127 121 116 109 102 94 94 89 88 82 75 70 64 60 55 49 43 32 21 16 0 358 343 329 304 301 301 319 321 329 325 328
167 165 163 167 165 161 160 154 145 138 129 120 112 106 104 99 97 95 92 87 79 68 60 54 51 45 38 27 22 14 10 5 357 354 345 336 308 303 311 327 333 343 332
173 167 166 167 166 166 159 150 143 135 125 117 109 114 112 106 104 99 91 81 68 58 53 50 48 42 33 19 13 7 360 358 358 357 346 337 343 316 334 338 344 338 336
166 165 164 167 167 162 155 150 143 132 128 122 124 122 112 112 106 97 87 76 67 62 60 57 56 52 45 33 23 14 9 360 359 356 353 340 333 329 337 353 1 360 343
165 162 165 165 162 157 152 149 140 140 136 127 123 119 120 114 105 100 92 80 76 71 63 60 58 55 48 38 32 30 28 19 17 15 3 357 344 330 328 332 350 354 359
162 161 162 161 158 155 155 152 146 145 138 128 132 132 127 118 112 103 99 90 86 78 70 65 63 58 48 38 33 30 28 28 28 24 14 359 341 335 331 325 329 340 340
163 164 162 158 159 160 159 155 152 155 144 142 138 138 131 124 115 107 102 99 97 92 76 69 62 59 52 42 31 23 15 10 13 23 25 20 5 355 344 334 330 334 332
166 165 160 164 166 164 165 164 164 159 150 150 144 141 133 121 112 112 108 104 100 87 73 57 48 41 35 28 20 14 7 1 353 354 7 21 21 14 358 352 343 340 342
170 168 171 170 171 172 171 168 164 158 152 152 149 144 134 120 117 117 116 109 97 74 51 36 29 22 18 13 6 359 355 354 348 340 334 343 353 356 358 359 2 2 354
170 170 173 173 173 172 173 166 163 157 153 156 152 149 137 132 133 131 128 113 79 50 36 25 14 6 1 354 348 342 340 336 334 326 314 310 309 315 320 322 327 335 342
173 170 164 167 166 165 166 167 158 157 156 158 164 161 154 151 158 152 118 45 37 27 19 8 355 347 343 339 334 331 329 334 335 329 316 307 299 295 295 300 305 308 311
168 164 163 158 159 164 170 162 156 158 162 141 172 182 179 171 189 199 295 322 338 343 336 335 328 329 329 328 324 325 328 330 327 324 319 312 304 296 283 287 295 302 299
179 170 173 170 168 161 162 167 160 177 182 194 212 232 216 210 223 248 273 290 302 303 309 310 311 320 323 320 317 319 322 314 308 308 309 306 303 298 295 291 288 288 293
192 185 189 182 179 168 175 193 208 237 254 273 259 255 261 248 247 261 273 281 288 296 296 301 311 319 317 315 312 311 302 295 295 295 295 298 297 296 297 296 294 289 283
206 205 202 199 193 192 193 165 159 276 264 257 252 244 249 266 269 283 279 280 283 297 314 315 321 322 314 307 304 303 299 299 300 298 295 293 294 297 298 295 292 291 287
227 223 218 220 220 211 176 351 279 256 264 276 270 258 267 294 301 286 270 285 309 313 314 321 321 316 303 298 297 295 298 300 303 306 304 302 300 301 299 296 294 290 287
244 245 234 232 234 219 216 265 258 260 285 308 358 354 328 302 296 295 300 303 306 309 313 319 315 306 303 303 304 301 299 298 299 300 298 298 300 301 300 296 291 288 286
247 245 245 249 241 277 241 241 298 65 109 339 314 304 297 293 298 294 305 310 305 308 311 311 308 308 311 313 312 311 310 306 301 293 291 294 296 297 299 299 297 293 288
247 246 241 227 258 220 164 99 120 175 264 284 281 292 297 297 294 297 306 306 306 308 310 313 311 309 308 310 318 314 312 308 284 290 282 284 295 297 297 299 298 299 297
140 127 151 125 120 105 103 106 133 139 265 275 289 295 294 298 301 306 308 312 318 320 317 314 314 311 318 325 330 325 314 297 289 276 279 291 295 299 300 301 305 306 305
124 124 117 110 104 112 129 143 170 287 299 298 296 295 299 304 312 315 318 320 317 316 313 310 309 316 328 325 326 328 313 295 306 299 300 305 308 309 307 310 311 309 306
120 122 123 128 136 146 158 203 284 300 301 295 294 306 318 317 319 324 322 322 318 313 308 296 301 307 319 323 322 314 305 295 300 301 295 296 304 309 312 316 321 316 311
134 140 146 145 148 171 207 260 284 296 304 307 319 327 323 311 314 316 317 317 315 308 296 287 294 308 312 329 324 314 310 306 303 294 302 310 306 309 305 318 320 323 316
150 156 151 170 179 207 253 288 326 348 338 330 320 316 315 313 314 314 313 314 308 301 288 285 300 318 309 317 321 323 318 313 310 305 302 309 308 311 310 313 312 313 310
Wind_Speed_850mb
51 51 46 41 39 36 33 33 31 28 27 26 26 23 19 17 16 15 14 16 18 21 22 18 15 11 8 5 2 4 10 13 15 15 9 10 12 14 17 16 18 22 23
50 51 46 42 40 37 34 32 29 26 26 27 24 20 20 20 18 18 21 24 25 26 27 26 25 23 20 16 12 9 8 9 12 14 13 9 9 13 13 13 17 19 22
48 49 44 40 40 37 32 30 29 26 27 26 23 22 22 21 21 23 26 25 25 24 24 23 23 21 21 19 18 18 16 15 12 10 12 13 12 11 10 14 17 21 20
45 49 47 41 37 33 31 28 26 25 25 23 22 22 23 21 23 25 25 22 21 20 21 20 20 20 20 20 20 20 20 19 20 18 14 12 11 14 15 14 12 22 17
48 48 45 40 35 32 29 26 24 25 24 22 22 23 22 23 25 26 23 19 18 18 17 17 18 18 19 21 22 22 24 25 23 21 18 17 11 9 14 16 19 18 12
45 44 40 37 34 30 27 25 26 25 23 21 22 23 24 25 26 24 20 18 22 25 27 28 29 27 25 26 28 27 25 26 26 24 21 18 17 16 17 20 19 17 15
43 40 39 34 31 28 26 25 25 24 22 21 23 23 24 26 25 23 22 24 27 32 34 35 35 34 32 31 33 33 31 29 29 26 23 20 20 21 22 22 19 16 13
43 40 36 32 29 27 26 26 25 23 20 23 25 25 27 26 26 25 24 26 28 31 34 35 35 34 33 32 32 32 33 34 34 30 26 23 24 23 22 24 23 20 19
39 40 37 33 30 28 26 24 23 21 22 25 27 29 28 26 27 24 23 24 26 25 26 27 29 31 32 30 31 33 34 34 32 32 31 27 23 25 23 18 21 24 24
39 35 32 32 31 27 26 23 22 21 24 27 28 27 28 25 24 22 21 20 21 20 20 21 24 27 30 33 36 36 33 33 33 28 24 23 23 23 23 21 18 20 22
37 32 31 28 28 28 26 24 22 23 25 26 24 25 24 20 19 18 17 16 15 16 18 22 24 24 29 32 35 37 38 38 38 33 25 19 16 17 17 21 24 22 22
39 33 28 27 27 27 24 22 22 24 24 23 20 20 18 16 13 13 11 10 9 13 18 22 23 27 32 40 41 39 37 44 44 32 26 27 23 20 20 19 20 22 20
36 33 28 27 26 23 21 21 22 21 20 17 16 17 14 11 11 8 4 5 8 11 15 19 21 27 37 42 42 41 48 48 43 34 29 31 32 33 31 30 28 29 27
31 28 26 24 23 23 22 18 15 14 13 9 10 12 11 9 8 4 2 6 8 11 15 19 20 26 41 46 42 43 45 47 41 35 31 30 31 34 36 35 36 37 39
30 28 26 25 24 23 18 15 12 9 9 11 7 7 9 10 8 7 10 12 13 17 20 24 26 39 47 42 40 42 44 35 36 38 37 39 37 35 36 38 37 38 40
29 27 28 24 22 20 16 13 8 7 13 13 12 16 21 16 13 14 16 17 20 23 28 31 41 49 47 44 40 40 33 33 35 38 41 42 42 42 41 42 43 41 40
28 30 28 26 23 26 22 9 2 15 21 24 31 28 25 28 17 16 20 23 24 28 39 46 46 49 46 41 39 40 36 39 42 42 42 44 48 50 51 51 51 50 49
33 34 30 22 28 28 22 6 26 23 32 32 34 24 22 14 12 17 21 24 32 48 45 48 51 45 38 36 37 37 40 46 51 53 51 49 51 53 56 57 56 56 57
35 36 36 29 30 31 37 27 32 30 25 16 10 14 15 13 16 22 27 40 49 48 49 54 45 39 38 38 41 42 44 48 53 57 56 54 53 54 52 56 57 58 57
32 34 36 32 36 26 33 19 9 3 4 9 15 16 14 24 31 29 35 39 40 46 45 43 41 41 44 51 53 56 58 57 53 45 44 50 55 50 56 59 60 63 65
16 18 21 24 10 3 9 6 9 5 8 6 9 18 24 26 30 32 34 35 38 41 42 45 47 52 56 55 53 41 43 37 30 43 52 41 49 59 56 60 57 61 67
13 11 15 19 21 22 18 12 10 6 3 9 16 24 27 31 33 35 36 37 41 49 54 53 51 40 38 43 41 32 27 29 25 27 34 48 45 59 51 55 70 69 65
43 39 36 31 28 22 18 11 2 4 9 17 25 30 32 34 34 37 41 45 50 53 49 40 28 30 29 41 45 23 22 22 41 24 35 39 34 39 53 55 60 62 64
46 43 38 36 31 20 11 4 6 10 16 23 27 28 28 28 35 40 45 52 54 50 37 30 32 35 36 32 35 25 31 30 34 42 34 36 42 44 45 45 46 53 56
37 36 33 24 17 10 5 8 12 15 15 16 16 20 27 32 42 47 53 55 54 48 42 38 34 39 38 31 42 36 26 24 24 28 50 43 43 39 37 40 36 38 47
33 30 24 20 16 10 7 8 11 14 16 19 23 28 34 41 51 55 54 53 52 50 46 37 32 46 46 33 30 26 21 24 27 31 37 41 49 48 44 42 38 39 44
Wind_Direction_850mb
162 159 161 158 154 151 151 147 143 137 131 129 124 117 110 105 100 97 93 87 85 81 76 73 73 73 72 66 25 308 303 310 308 311 315 311 319 332 346 351 358 0 360
155 162 162 159 159 158 155 151 146 142 136 128 121 119 117 111 107 97 91 86 82 79 75 70 68 67 64 60 52 40 13 338 326 314 309 301 302 324 334 347 340 341 343
160 162 160 165 162 159 155 155 148 143 134 127 121 116 109 102 94 94 89 88 82 75 70 64 60 55 49 43 32 21 16 0 358 343 329 304 301 301 319 321 329 325 328
167 165 163 167 165 161 160 154 145 138 129 120 112 106 104 99 97 95 92 87 79 68 60 54 51 45 38 27 22 14 10 5 357 354 345 336 308 303 311 327 333 343 332
173 167 166 167 166 166 159 150 143 135 125 117 109 114 112 106 104 99 91 81 68 58 53 50 48 42 33 19 13 7 360 358 358 357 346 337 343 316 334 338 344 338 336
166 165 164 167 167 162 155 150 143 132 128 122 124 122 112 112 106 97 87 76 67 62 60 57 56 52 45 33 23 14 9 360 359 356 353 340 333 329 337 353 1 360 343
165 162 165 165 162 157 152 149 140 140 136 127 123 119 120 114 105 100 92 80 76 71 63 60 58 55 48 38 32 30 28 19 17 15 3 357 344 330 328 332 350 354 359
162 161 162 161 158 155 155 152 146 145 138 128 132 132 127 118 112 103 99 90 86 78 70 65 63 58 48 38 33 30 28 28 28 24 14 359 341 335 331 325 329 340 340
163 164 162 158 159 160 159 155 152 155 144 142 138 138 131 124 115 107 102 99 97 92 76 69 62 59 52 42 31 23 15 10 13 23 25 20 5 355 344 334 330 334 332
166 165 160 164 166 164 165 164 164 159 150 150 144 141 133 121 112 112 108 104 100 87 73 57 48 41 35 28 20 14 7 1 353 354 7 21 21 14 358 352 343 340 342
170 168 171 170 171 172 171 168 164 158 152 152 149 144 134 120 117 117 116 109 97 74 51 36 29 22 18 13 6 359 355 354 348 340 334 343 353 356 358 359 2 2 354
170 170 173 173 173 172 173 166 163 157 153 156 152 149 137 132 133 131 128 113 79 50 36 25 14 6 1 354 348 342 340 336 334 326 314 310 309 315 320 322 327 335 342
173 170 164 167 166 165 166 167 158 157 156 158 164 161 154 151 158 152 118 45 37 27 19 8 355 347 343 339 334 331 329 334 335 329 316 307 299 295 295 300 305 308 311
168 164 163 158 159 164 170 162 156 158 162 141 172 182 179 171 189 199 295 322 338 343 336 335 328 329 329 328 324 325 328 330 327 324 319 312 304 296 283 287 295 302 299
179 170 173 170 168 161 162 167 160 177 182 194 212 232 216 210 223 248 273 290 302 303 309 310 311 320 323 320 317 319 322 314 308 308 309 306 303 298 295 291 288 288 293
192 185 189 182 179 168 175 193 208 237 254 273 259 255 261 248 247 261 273 281 288 296 296 301 311 319 317 315 312 311 302 295 295 295 295 298 297 296 297 296 294 289 283
206 205 202 199 193 192 193 165 159 276 264 257 252 244 249 266 269 283 279 280 283 297 314 315 321 322 314 307 304 303 299 299 300 298 295 293 294 297 298 295 292 291 287
227 223 218 220 220 211 176 351 279 256 264 276 270 258 267 294 301 286 270 285 309 313 314 321 321 316 303 298 297 295 298 300 303 306 304 302 300 301 299 296 294 290 287
244 245 234 232 234 219 216 265 258 260 285 308 358 354 328 302 296 295 300 303 306 309 313 319 315 306 303 303 304 301 299 298 299 300 298 298 300 301 300 296 291 288 286
247 245 245 249 241 277 241 241 298 65 109 339 314 304 297 293 298 294 305 310 305 308 311 311 308 308 311 313 312 311 310 306 301 293 291 294 296 297 299 299 297 293 288
247 246 241 227 258 220 164 99 120 175 264 284 281 292 297 297 294 297 306 306 306 308 310 313 311 309 308 310 318 314 312 308 284 290 282 284 295 297 297 299 298 299 297
140 127 151 125 120 105 103 106 133 139 265 275 289 295 294 298 301 306 308 312 318 320 317 314 314 311 318 325 330 325 314 297 289 276 279 291 295 299 300 301 305 306 305
124 124 117 110 104 112 129 143 170 287 299 298 296 295 299 304 312 315 318 320 317 316 313 310 309 316 328 325 326 328 313 295 306 299 300 305 308 309 307 310 311 309 306
120 122 123 128 136 146 158 203 284 300 301 295 294 306 318 317 319 324 322 322 318 313 308 296 301 307 319 323 322 314 305 295 300 301 295 296 304 309 312 316 321 316 311
134 140 146 145 148 171 207 260 284 296 304 307 319 327 323 311 314 316 317 317 315 308 296 287 294 308 312 329 324 314 310 306 303 294 302 310 306 309 305 318 320 323 316
150 156 151 170 179 207 253 288 326 348 338 330 320 316 315 313 314 314 313 314 308 301 288 285 300 318 309 317 321 323 318 313 310 305 302 309 308 311 310 313 312 313 310